Wind_Speed
11 11 12 14 16 17 18 19 18 18 18 17 17 17 17 18 18 17 17 16 17 16 13 12 11 10 9 9 7 6 5 4 3 3 3 3 4 5 6 7 8 8 9 10
10 10 11 12 14 15 16 17 18 18 18 18 18 17 18 18 19 18 17 17 17 16 14 13 12 11 10 9 9 6 6 5 4 4 3 3 4 5 6 7 8 9 9 10
9 9 9 11 13 13 15 15 16 17 18 18 18 18 19 19 19 19 18 17 16 16 16 14 13 12 11 10 9 7 7 6 5 4 4 4 4 5 6 7 7 8 9 10
8 8 8 10 11 12 13 13 14 16 17 18 18 19 19 19 20 19 18 17 16 17 16 15 14 13 12 11 10 9 8 7 6 5 5 4 4 4 5 6 7 8 8 9
7 7 7 8 9 10 11 11 12 14 15 16 17 19 19 20 20 19 19 18 17 17 16 16 15 14 13 12 11 10 9 8 7 6 5 5 4 4 5 6 7 7 8 8
7 6 6 7 8 9 10 11 11 13 15 16 15 17 19 20 18 20 20 20 19 17 18 17 16 15 14 13 12 11 10 9 8 7 6 6 5 4 4 5 6 6 7 7
6 6 6 7 7 9 9 10 11 13 14 14 14 16 17 18 18 18 19 21 20 19 18 17 16 15 15 14 13 12 11 9 8 8 7 6 5 4 4 4 5 5 6 6
6 6 6 7 7 8 8 10 11 11 13 13 14 15 16 17 18 18 18 19 20 20 18 18 17 16 16 15 14 13 12 10 9 9 8 7 5 4 3 3 4 4 5 5
6 6 6 6 7 7 8 9 10 11 11 13 14 14 15 16 17 19 19 18 20 19 19 18 18 18 17 16 15 14 13 11 10 10 9 8 6 5 3 3 2 3 3 4
6 6 6 6 6 6 7 8 9 10 11 11 12 12 13 15 16 18 19 19 19 20 19 19 19 19 18 17 16 15 13 12 12 11 10 9 7 5 4 3 2 2 2 2
6 6 7 6 6 7 8 8 9 10 11 11 11 12 13 14 15 16 18 19 19 20 20 20 19 19 19 18 17 15 14 14 13 12 11 10 8 7 5 4 3 2 2 1
7 7 8 7 7 8 8 8 9 10 10 11 12 12 13 14 15 16 18 19 20 20 21 21 20 20 19 18 18 17 16 15 15 14 12 11 10 8 6 5 4 3 3 2
7 7 8 9 9 8 8 9 9 9 11 11 12 11 13 13 15 16 18 19 20 20 21 22 21 21 20 19 19 18 17 17 16 15 13 12 11 10 8 6 5 5 4 4
8 8 7 7 7 9 9 9 10 9 10 10 10 11 13 13 14 15 17 19 20 20 20 21 22 22 21 20 20 19 18 18 17 16 15 13 12 11 9 8 7 7 6 6
10 9 8 7 7 8 8 8 9 9 10 10 10 11 12 13 13 14 16 17 19 20 19 20 22 22 22 21 21 20 19 18 18 17 16 15 14 12 11 10 9 9 8 8
11 10 10 8 8 8 8 8 9 9 10 10 10 12 12 13 13 13 14 15 18 19 20 20 21 22 21 20 20 19 20 19 19 18 17 16 15 14 13 12 11 10 9 9
12 12 11 10 9 8 8 8 9 10 11 11 10 11 13 13 13 13 13 14 17 19 19 19 20 20 21 20 19 19 20 19 19 18 18 17 16 15 15 14 13 12 11 11
14 13 13 12 11 10 7 8 9 10 11 11 11 12 13 13 13 13 13 14 16 17 18 19 19 20 21 21 20 20 20 20 19 18 19 18 17 17 16 15 15 14 13 13
15 15 14 13 12 10 9 9 9 10 10 12 12 12 12 13 13 13 13 14 15 16 17 18 19 20 20 20 20 19 19 19 19 18 19 19 19 18 18 17 17 16 16 15
17 16 15 14 13 10 9 10 10 10 9 10 11 12 11 11 11 12 13 13 14 16 16 18 18 19 20 20 20 20 19 19 19 20 20 19 19 19 18 18 18 18 18 18
18 17 17 15 14 11 11 11 11 10 10 11 11 12 12 11 12 12 13 13 14 15 16 17 18 19 19 19 20 20 20 20 20 21 20 20 20 20 19 19 19 18 19 19
19 19 18 16 14 12 12 12 11 11 11 12 12 12 13 13 13 13 14 14 15 15 16 17 18 19 19 20 20 21 21 22 22 21 21 20 21 20 20 20 20 20 19 20
21 20 18 17 15 13 14 13 13 13 12 13 13 13 13 13 13 13 14 14 15 16 17 17 18 18 19 19 20 20 21 22 22 21 21 21 21 21 21 20 20 20 20 21
23 21 20 18 16 16 15 15 14 14 13 14 15 14 14 14 14 13 13 14 15 16 16 17 17 18 19 19 20 21 21 21 21 22 22 22 22 22 22 22 22 22 22 22
24 23 21 19 18 18 17 16 16 15 15 15 15 15 15 15 15 15 15 15 16 17 17 17 18 19 20 20 21 21 22 22 22 22 23 23 23 23 23 23 24 24 24 25
25 24 22 20 19 19 19 18 18 17 17 17 16 16 16 15 16 16 16 16 17 17 18 19 20 20 21 22 22 22 23 23 24 24 24 24 25 25 26 26 26 26 27 27
Wind_Direction
274 264 256 249 243 240 240 238 239 235 233 229 227 226 224 219 215 214 214 213 210 208 208 210 208 207 209 209 203 199 189 172 153 137 118 94 80 69 60 54 48 44 41 39
272 266 260 253 246 244 239 237 236 234 232 230 225 224 221 218 215 214 214 214 211 208 209 209 210 207 206 203 199 194 190 173 158 146 132 112 93 77 66 57 49 47 47 44
274 268 258 252 246 247 241 238 234 231 229 227 225 222 220 218 215 213 213 214 208 207 207 206 205 202 202 200 199 194 188 173 164 153 143 126 106 87 70 61 55 54 50 48
273 265 258 251 246 247 246 241 235 230 228 227 227 223 218 217 216 214 212 211 209 207 204 205 205 204 203 201 197 194 185 175 169 162 153 138 118 94 74 66 62 58 55 55
270 264 257 253 249 249 247 243 235 232 231 230 226 223 215 217 216 214 212 209 207 207 206 206 206 204 204 200 197 193 186 180 174 168 161 147 129 105 84 71 65 62 61 59
271 267 262 254 250 248 247 245 240 233 233 230 224 221 214 216 214 212 211 209 209 210 207 206 206 206 205 201 198 195 190 185 178 172 166 157 143 119 94 76 66 63 64 63
274 270 264 255 252 249 247 243 242 236 229 226 220 221 214 213 213 212 211 209 209 209 208 207 205 205 204 200 199 196 194 188 184 180 175 169 159 136 107 82 71 68 70 70
266 261 260 255 253 255 246 243 241 237 227 222 219 220 215 215 214 214 211 209 209 209 208 207 205 204 203 201 199 198 196 194 191 187 183 178 173 158 132 101 83 78 75 75
264 260 260 255 251 251 246 239 235 232 226 221 220 219 216 215 212 212 213 211 209 209 210 209 206 205 205 204 202 201 199 199 197 194 191 187 185 180 164 137 113 96 88 83
261 261 259 254 252 249 241 235 229 227 227 223 221 222 219 216 212 211 210 211 212 212 212 210 209 207 205 204 203 201 199 202 201 198 196 195 195 194 188 176 161 135 109 103
260 262 258 258 256 249 239 238 231 228 229 224 217 220 217 217 213 211 211 212 212 213 212 211 210 209 208 208 206 203 203 203 203 203 202 202 202 203 204 202 192 180 161 154
254 258 254 253 249 246 241 235 235 230 227 222 216 212 215 214 213 212 212 212 211 212 210 210 210 210 208 209 209 207 207 206 206 207 207 207 208 210 214 215 210 205 199 200
249 254 255 250 246 243 238 234 237 234 226 218 214 212 213 213 213 211 211 212 212 213 214 212 211 211 211 213 212 211 211 210 209 208 210 211 211 214 219 222 221 219 218 224
250 253 251 248 245 237 233 229 229 229 223 213 211 210 209 209 210 211 212 213 214 215 215 213 213 213 214 214 212 213 213 214 212 211 212 214 215 216 221 227 229 230 232 237
248 248 247 246 248 242 235 235 227 222 215 212 209 211 211 212 212 214 216 217 217 216 218 217 215 215 216 215 213 214 214 216 215 215 216 217 219 220 224 230 234 237 241 245
242 244 243 243 246 241 238 234 226 216 214 212 211 211 213 215 215 215 216 217 219 220 221 220 218 219 217 215 214 214 215 216 217 217 219 221 223 225 228 232 236 240 244 249
240 240 239 241 241 239 237 234 226 220 214 216 216 214 215 215 215 217 219 221 221 220 221 222 221 221 218 215 214 214 215 216 217 219 222 224 226 229 233 236 239 242 246 252
238 239 239 243 245 244 237 235 229 223 222 219 217 217 218 217 215 217 218 218 218 219 219 219 219 220 218 217 216 217 218 220 221 223 225 226 229 233 237 239 242 246 249 252
236 238 238 242 245 245 236 234 230 225 222 222 222 220 221 218 217 219 218 216 216 215 217 218 219 218 218 217 218 220 222 224 227 229 231 230 232 236 240 242 246 249 251 253
233 235 238 239 242 241 232 231 228 225 220 220 218 217 219 219 220 219 217 216 215 217 219 219 218 219 220 220 221 224 226 229 231 233 235 236 236 238 241 244 248 250 252 255
233 236 237 241 240 233 230 229 226 224 219 219 219 219 222 225 226 226 221 216 219 221 223 221 219 221 223 224 226 227 229 232 235 237 239 241 241 241 243 246 249 254 255 256
234 236 237 239 239 231 231 228 226 223 222 221 222 223 225 226 227 229 225 223 224 225 225 223 222 224 225 227 228 229 231 234 237 240 242 244 244 244 246 249 252 254 256 259
232 232 234 236 235 233 230 229 229 227 227 227 226 226 228 230 230 232 229 228 227 228 228 225 226 228 229 231 231 232 235 237 239 240 243 244 245 246 249 251 253 255 257 260
231 230 231 232 232 233 233 233 229 231 232 231 230 230 232 234 236 236 235 235 233 233 232 231 232 232 233 235 234 235 237 239 240 242 244 245 247 249 251 253 255 257 259 261
229 228 229 231 231 232 232 232 231 232 233 234 233 234 236 237 239 241 242 240 237 236 236 236 236 236 236 237 238 238 240 242 244 246 247 248 250 252 253 255 257 258 260 263
227 228 229 230 229 231 232 233 233 235 237 238 238 239 239 240 241 241 242 241 239 239 239 238 239 240 240 241 242 242 243 245 247 248 249 251 252 254 256 257 259 260 263 266
Height
5822 5823 5823 5823 5824 5826 5828 5830 5832 5834 5836 5839 5841 5843 5846 5849 5852 5855 5857 5860 5862 5865 5867 5870 5871 5873 5875 5877 5878 5879 5879 5880 5880 5880 5880 5880 5880 5879 5878 5877 5875 5873 5872 5870
5821 5821 5821 5821 5822 5823 5825 5827 5828 5831 5833 5836 5838 5841 5843 5846 5849 5852 5855 5858 5860 5863 5866 5868 5870 5872 5874 5875 5877 5878 5879 5880 5880 5881 5881 5881 5880 5879 5879 5878 5876 5874 5873 5871
5818 5819 5819 5819 5820 5821 5822 5824 5826 5828 5830 5833 5835 5838 5841 5843 5846 5850 5853 5856 5858 5861 5864 5866 5869 5871 5873 5874 5876 5877 5878 5879 5880 5880 5881 5881 5881 5880 5880 5879 5877 5876 5874 5873
5817 5817 5817 5818 5818 5819 5820 5821 5823 5825 5827 5830 5833 5835 5838 5841 5844 5847 5850 5853 5856 5859 5862 5864 5867 5869 5871 5873 5875 5876 5877 5878 5879 5880 5881 5881 5881 5881 5881 5880 5879 5878 5876 5874
5815 5815 5816 5816 5817 5817 5818 5819 5821 5823 5824 5827 5829 5832 5836 5838 5841 5845 5848 5851 5854 5857 5860 5862 5865 5867 5870 5872 5874 5875 5877 5878 5879 5880 5881 5882 5882 5882 5881 5881 5880 5879 5878 5876
5814 5814 5814 5814 5815 5816 5817 5818 5819 5820 5822 5825 5827 5830 5833 5835 5839 5842 5845 5849 5852 5855 5858 5860 5863 5866 5868 5870 5872 5874 5876 5877 5879 5880 5881 5882 5882 5882 5882 5882 5881 5880 5879 5878
5813 5813 5813 5813 5813 5814 5815 5817 5818 5819 5821 5823 5825 5827 5831 5833 5836 5839 5842 5846 5849 5852 5856 5858 5861 5864 5867 5869 5871 5873 5875 5876 5878 5879 5881 5882 5882 5882 5883 5882 5882 5881 5881 5880
5811 5812 5812 5812 5812 5813 5813 5815 5817 5818 5819 5821 5823 5825 5829 5831 5834 5837 5840 5843 5846 5850 5853 5856 5859 5862 5865 5867 5870 5872 5874 5876 5877 5879 5880 5881 5882 5883 5883 5883 5882 5882 5882 5881
5810 5811 5810 5810 5811 5811 5812 5813 5815 5816 5817 5819 5821 5824 5826 5828 5831 5834 5838 5841 5844 5848 5851 5854 5857 5860 5863 5866 5868 5870 5872 5874 5876 5878 5879 5881 5882 5882 5883 5883 5883 5883 5882 5882
5809 5809 5809 5809 5810 5810 5811 5812 5813 5814 5816 5818 5820 5822 5824 5826 5829 5832 5835 5839 5842 5845 5848 5852 5855 5858 5861 5863 5866 5868 5871 5873 5875 5877 5878 5880 5881 5882 5883 5883 5883 5883 5883 5883
5807 5808 5808 5808 5808 5809 5810 5811 5811 5813 5814 5816 5818 5822 5823 5825 5827 5830 5833 5836 5840 5843 5846 5849 5852 5856 5858 5861 5864 5866 5869 5871 5873 5875 5877 5878 5880 5881 5882 5882 5882 5883 5883 5883
5806 5806 5806 5807 5807 5807 5808 5809 5810 5812 5813 5814 5816 5822 5821 5823 5825 5828 5831 5834 5837 5840 5843 5847 5850 5853 5856 5859 5862 5864 5867 5869 5871 5873 5875 5877 5878 5880 5881 5881 5882 5882 5882 5882
5804 5805 5805 5805 5807 5807 5807 5807 5808 5810 5811 5812 5815 5820 5819 5821 5823 5826 5829 5831 5834 5838 5841 5844 5847 5850 5853 5856 5859 5862 5865 5867 5869 5871 5873 5875 5877 5878 5879 5880 5881 5881 5882 5882
5802 5803 5804 5805 5804 5804 5805 5806 5807 5808 5809 5811 5813 5815 5817 5819 5821 5824 5827 5829 5832 5835 5838 5841 5844 5847 5850 5854 5856 5859 5862 5864 5867 5869 5871 5873 5875 5876 5878 5878 5879 5880 5880 5881
5800 5801 5801 5802 5802 5803 5804 5805 5805 5807 5808 5810 5812 5813 5815 5817 5819 5822 5824 5827 5830 5833 5835 5838 5841 5844 5847 5850 5853 5856 5859 5861 5864 5866 5868 5871 5872 5874 5875 5876 5877 5878 5879 5879
5797 5799 5799 5800 5800 5801 5802 5803 5804 5805 5807 5808 5809 5811 5813 5815 5818 5820 5822 5825 5828 5830 5833 5835 5838 5841 5844 5847 5850 5853 5856 5858 5861 5863 5866 5868 5870 5872 5873 5874 5875 5876 5877 5877
5794 5796 5797 5798 5798 5799 5801 5801 5802 5804 5805 5807 5808 5811 5811 5813 5815 5818 5820 5822 5824 5827 5829 5832 5835 5838 5841 5844 5846 5849 5852 5855 5858 5860 5862 5865 5867 5869 5870 5871 5872 5873 5874 5875
5791 5793 5794 5796 5797 5798 5801 5800 5800 5802 5803 5805 5806 5808 5809 5812 5814 5816 5817 5819 5822 5824 5827 5829 5832 5835 5838 5841 5843 5846 5849 5852 5854 5857 5859 5861 5863 5865 5867 5868 5869 5870 5871 5872
5788 5790 5791 5793 5794 5796 5797 5798 5798 5800 5801 5803 5804 5806 5807 5809 5812 5814 5815 5817 5819 5821 5824 5827 5829 5832 5835 5838 5841 5843 5846 5849 5851 5853 5855 5857 5859 5861 5863 5865 5866 5867 5868 5868
5784 5786 5789 5790 5791 5793 5796 5796 5796 5799 5800 5801 5802 5804 5806 5808 5810 5812 5813 5815 5817 5819 5821 5824 5826 5829 5832 5834 5837 5840 5843 5845 5847 5849 5851 5853 5855 5857 5859 5860 5861 5863 5863 5864
5780 5783 5785 5787 5788 5791 5793 5793 5795 5798 5799 5799 5800 5802 5804 5806 5808 5810 5811 5813 5815 5817 5819 5821 5824 5826 5829 5832 5834 5837 5839 5841 5843 5845 5847 5849 5851 5852 5854 5855 5857 5858 5859 5859
5776 5779 5781 5783 5785 5790 5789 5791 5793 5795 5795 5797 5798 5800 5802 5803 5805 5806 5808 5810 5812 5814 5816 5818 5821 5823 5826 5828 5830 5833 5835 5837 5839 5841 5843 5844 5846 5847 5849 5851 5852 5853 5854 5854
5771 5775 5778 5781 5784 5785 5786 5788 5790 5791 5793 5794 5796 5797 5799 5801 5802 5804 5805 5807 5809 5811 5813 5815 5817 5820 5822 5824 5826 5828 5830 5832 5834 5836 5838 5840 5841 5843 5844 5845 5847 5848 5848 5849
5766 5770 5773 5776 5779 5781 5782 5784 5786 5788 5790 5791 5793 5795 5796 5798 5799 5801 5803 5804 5806 5808 5809 5812 5814 5816 5818 5820 5822 5824 5826 5828 5830 5831 5833 5835 5836 5838 5839 5840 5841 5842 5843 5843
5761 5764 5768 5771 5774 5776 5778 5781 5783 5785 5786 5788 5790 5791 5793 5794 5796 5797 5799 5801 5802 5804 5806 5808 5810 5812 5813 5815 5817 5819 5821 5823 5825 5826 5828 5829 5831 5832 5833 5834 5835 5836 5837 5837
5756 5760 5763 5767 5770 5772 5775 5777 5779 5781 5782 5784 5786 5787 5789 5790 5792 5793 5795 5797 5798 5800 5802 5804 5806 5807 5809 5811 5812 5814 5816 5817 5819 5821 5822 5824 5825 5826 5827 5828 5828 5829 5830 5830